,,Stat6,,Stat2,,Stat8,,Stat9,,Stat10,,Wind1,,Wind1,
time,status,PA1M_AVG,status,PR1M_SUM,status,RH1M_AVG,status,SR1M_AVG,status,TA1M_AVG,status,W1dAve1m,status,W1sAve1m,
2007-05-20, 00:00:00,VALID,919.233,VALID,0,VALID,100,VALID,-0.0679233,VALID,21.6807,VALID,70,VALID,0.206424,
2007-05-20, 00:01:00,VALID,919.216,VALID,0,VALID,100,VALID,-0.0849042,VALID,21.6967,VALID,70,VALID,0.0610119,
2007-05-20, 00:02:00,VALID,919.211,VALID,0,VALID,100,VALID,-0.101885,VALID,21.7105,VALID,70,VALID,0.0216206,
2007-05-20, 00:03:00,VALID,919.18,VALID,0,VALID,100,VALID,-0.0849042,VALID,21.6937,VALID,70,VALID,0.243924,
2007-05-20, 00:04:00,VALID,919.141,VALID,0,VALID,100,VALID,-0.0849042,VALID,21.6742,VALID,92,VALID,0.389509,
2007-05-20, 00:05:00,VALID,919.122,VALID,0,VALID,100,VALID,-0.0679233,VALID,21.658,VALID,119,VALID,0.477751,
2007-05-20, 00:06:00,VALID,919.091,VALID,0,VALID,99.9364,VALID,-0.0679233,VALID,21.6188,VALID,160,VALID,0.551291,
2007-05-20, 00:07:00,VALID,919.05,VALID,0,VALID,99.9176,VALID,-0.101885,VALID,21.5931,VALID,182,VALID,0.715732,
2007-05-20, 00:08:00,VALID,919.025,VALID,0,VALID,99.9634,VALID,-0.0849042,VALID,21.5638,VALID,186,VALID,0.692522,
2007-05-20, 00:09:00,VALID,918.997,VALID,0,VALID,99.9919,VALID,-0.101885,VALID,21.5544,VALID,188,VALID,0.696429,
2007-05-20, 00:10:00,VALID,918.972,VALID,0,VALID,100,VALID,-0.0169808,VALID,21.5346,VALID,188,VALID,0.744226,
2007-05-20, 00:11:00,VALID,918.965,VALID,0,VALID,100,VALID,-0.101885,VALID,21.5119,VALID,188,VALID,0.777004,
2007-05-20, 00:12:00,VALID,918.956,VALID,0,VALID,100,VALID,-0.101885,VALID,21.4989,VALID,186,VALID,0.693164,
2007-05-20, 00:13:00,VALID,918.948,VALID,0,VALID,100,VALID,-0.101885,VALID,21.4859,VALID,186,VALID,0.335747,
2007-05-20, 00:14:00,VALID,918.966,VALID,0,VALID,100,VALID,-0.0679233,VALID,21.4694,VALID,186,VALID,0.315799,
2007-05-20, 00:15:00,VALID,918.982,VALID,0,VALID,100,VALID,-0.0679233,VALID,21.4627,VALID,157,VALID,0.482279,
2007-05-20, 00:16:00,VALID,919.006,VALID,0,VALID,100,VALID,-0.0509425,VALID,21.4564,VALID,147,VALID,0.418146,
2007-05-20, 00:17:00,VALID,919.034,VALID,0,VALID,100,VALID,-0.0509425,VALID,21.4372,VALID,147,VALID,0.351563,
2007-05-20, 00:18:00,VALID,919.069,VALID,0,VALID,100,VALID,-0.0849042,VALID,21.4077,VALID,140,VALID,0.244731,
2007-05-20, 00:19:00,VALID,919.095,VALID,0,VALID,100,VALID,-0.0509425,VALID,21.3883,VALID,118,VALID,0.359375,
2007-05-20, 00:20:00,VALID,919.101,VALID,0,VALID,100,VALID,-0.0679233,VALID,21.3945,VALID,93,VALID,0.741443,
2007-05-20, 00:21:00,VALID,919.113,VALID,0,VALID,100,VALID,-0.0509425,VALID,21.4069,VALID,93,VALID,0.656808,
2007-05-20, 00:22:00,VALID,919.119,VALID,0,VALID,100,VALID,-0.0509425,VALID,21.4305,VALID,93,VALID,0.660061,
2007-05-20, 00:23:00,VALID,919.122,VALID,0,VALID,100,VALID,-0.0169808,VALID,21.4429,VALID,93,VALID,0.53016,
2007-05-20, 00:24:00,VALID,919.093,VALID,0,VALID,100,VALID,-0.0509425,VALID,21.4435,VALID,105,VALID,0.611579,
2007-05-20, 00:25:00,VALID,919.077,VALID,0,VALID,100,VALID,-0.0169808,VALID,21.4337,VALID,121,VALID,0.666159,
2007-05-20, 00:26:00,VALID,919.052,VALID,0,VALID,100,VALID,-0.0849042,VALID,21.4234,VALID,140,VALID,0.696514,
2007-05-20, 00:27:00,VALID,919.036,VALID,0,VALID,100,VALID,-0.0339617,VALID,21.4297,VALID,137,VALID,0.880526,
2007-05-20, 00:28:00,VALID,919.026,VALID,0,VALID,100,VALID,-0.0509425,VALID,21.4562,VALID,134,VALID,0.890253,
2007-05-20, 00:29:00,VALID,919.022,VALID,0,VALID,100,VALID,0,VALID,21.4464,VALID,98,VALID,0.553943,
2007-05-20, 00:30:00,VALID,919.027,VALID,0,VALID,100,VALID,-0.0339617,VALID,21.4526,VALID,90,VALID,0.488782,
2007-05-20, 00:31:00,VALID,919.043,VALID,0,VALID,100,VALID,-0.0509425,VALID,21.4594,VALID,90,VALID,0.361793,
2007-05-20, 00:32:00,VALID,919.041,VALID,0,VALID,100,VALID,-0.0849042,VALID,21.4892,VALID,90,VALID,0.26391,
2007-05-20, 00:33:00,VALID,919.055,VALID,0,VALID,100,VALID,-0.0849042,VALID,21.5149,VALID,88,VALID,0.425868,
2007-05-20, 00:34:00,VALID,919.059,VALID,0,VALID,100,VALID,-0.101885,VALID,21.5411,VALID,26,VALID,0.635861,
2007-05-20, 00:35:00,VALID,919.075,VALID,0,VALID,100,VALID,-0.0509425,VALID,21.5438,VALID,1,VALID,0.5,
2007-05-20, 00:36:00,VALID,919.084,VALID,0,VALID,100,VALID,-0.0509425,VALID,21.5603,VALID,297,VALID,0.595052,
2007-05-20, 00:37:00,VALID,919.082,VALID,0,VALID,100,VALID,-0.0339617,VALID,21.5703,VALID,290,VALID,0.160511,
2007-05-20, 00:38:00,VALID,919.082,VALID,0,VALID,100,VALID,-0.0339617,VALID,21.5766,VALID,290,VALID,0,
2007-05-20, 00:39:00,VALID,919.066,VALID,0,VALID,100,VALID,-0.0509425,VALID,21.5763,VALID,290,VALID,0,
2007-05-20, 00:40:00,VALID,919.041,VALID,0,VALID,100,VALID,-0.0169808,VALID,21.5728,VALID,290,VALID,0,
2007-05-20, 00:41:00,VALID,919.015,VALID,0,VALID,100,VALID,-0.0679233,VALID,21.5833,VALID,290,VALID,0,
2007-05-20, 00:42:00,VALID,918.983,VALID,0,VALID,100,VALID,-0.0509425,VALID,21.5863,VALID,287,VALID,0.27782,
2007-05-20, 00:43:00,VALID,918.97,VALID,0,VALID,100,VALID,-0.0849042,VALID,21.5936,VALID,283,VALID,0.268532,
2007-05-20, 00:44:00,VALID,918.948,VALID,0,VALID,100,VALID,0,VALID,21.5784,VALID,224,VALID,0.422619,
2007-05-20, 00:45:00,VALID,918.937,VALID,0,VALID,100,VALID,0,VALID,21.5525,VALID,186,VALID,0.447493,
2007-05-20, 00:46:00,VALID,918.935,VALID,0,VALID,100,VALID,0,VALID,21.5295,VALID,186,VALID,0.264695,
2007-05-20, 00:47:00,VALID,918.938,VALID,0,VALID,100,VALID,0.0169808,VALID,21.5103,VALID,186,VALID,0.363281,
2007-05-20, 00:48:00,VALID,918.939,VALID,0,VALID,100,VALID,0.0679233,VALID,21.5068,VALID,186,VALID,0.375355,
2007-05-20, 00:49:00,VALID,918.943,VALID,0,VALID,100,VALID,0.0169808,VALID,21.526,VALID,186,VALID,0.298473,
2007-05-20, 00:50:00,VALID,918.936,VALID,0,VALID,100,VALID,0.0339617,VALID,21.5746,VALID,186,VALID,0.310138,
2007-05-20, 00:51:00,VALID,918.915,VALID,0,VALID,100,VALID,0.0339617,VALID,21.6301,VALID,186,VALID,0.34157,
2007-05-20, 00:52:00,VALID,918.904,VALID,0,VALID,100,VALID,0.0509425,VALID,21.6726,VALID,186,VALID,0.360085,
2007-05-20, 00:53:00,VALID,918.885,VALID,0,VALID,100,VALID,0.0849042,VALID,21.6823,VALID,186,VALID,0.407738,
2007-05-20, 00:54:00,VALID,918.884,VALID,0,VALID,100,VALID,0.0339617,VALID,21.6753,VALID,186,VALID,0.427819,
2007-05-20, 00:55:00,VALID,918.882,VALID,0,VALID,100,VALID,0.0339617,VALID,21.6691,VALID,184,VALID,0.342187,
2007-05-20, 00:56:00,VALID,918.877,VALID,0,VALID,100,VALID,0.0339617,VALID,21.6853,VALID,184,VALID,0.0568677,
2007-05-20, 00:57:00,VALID,918.876,VALID,0,VALID,100,VALID,0.0169808,VALID,21.7245,VALID,184,VALID,0,
2007-05-20, 00:58:00,VALID,918.893,VALID,0,VALID,100,VALID,0.0679233,VALID,21.7502,VALID,184,VALID,0,
2007-05-20, 00:59:00,VALID,918.89,VALID,0,VALID,100,VALID,0,VALID,21.7762,VALID,184,VALID,0,
2007-05-20, 01:00:00,VALID,918.89,VALID,0,VALID,100,VALID,-0.0339617,VALID,21.8006,VALID,184,VALID,0,
2007-05-20, 01:01:00,VALID,918.892,VALID,0,VALID,99.9893,VALID,-0.0679233,VALID,21.8268,VALID,184,VALID,0,
2007-05-20, 01:02:00,VALID,918.88,VALID,0,VALID,99.8655,VALID,-0.0339617,VALID,21.8463,VALID,184,VALID,0.0800781,
2007-05-20, 01:03:00,VALID,918.852,VALID,0,VALID,99.6913,VALID,-0.0339617,VALID,21.865,VALID,184,VALID,0.113554,
2007-05-20, 01:04:00,VALID,918.835,VALID,0,VALID,99.4903,VALID,0,VALID,21.8918,VALID,184,VALID,0.244978,
2007-05-20, 01:05:00,VALID,918.825,VALID,0,VALID,99.3784,VALID,-0.0339617,VALID,21.8977,VALID,184,VALID,0.380208,
2007-05-20, 01:06:00,VALID,918.81,VALID,0,VALID,99.3479,VALID,-0.0509425,VALID,21.8945,VALID,184,VALID,0.228472,
2007-05-20, 01:07:00,VALID,918.8,VALID,0,VALID,99.4166,VALID,-0.0339617,VALID,21.8882,VALID,184,VALID,0.0855655,
2007-05-20, 01:08:00,VALID,918.784,VALID,0,VALID,99.4306,VALID,-0.0509425,VALID,21.8785,VALID,184,VALID,0.154382,
2007-05-20, 01:09:00,VALID,918.762,VALID,0,VALID,99.4789,VALID,-0.0509425,VALID,21.849,VALID,184,VALID,0.0561756,
2007-05-20, 01:10:00,VALID,918.749,VALID,0,VALID,99.6099,VALID,-0.0339617,VALID,21.8293,VALID,184,VALID,0.0298295,
2007-05-20, 01:11:00,VALID,918.723,VALID,0,VALID,99.751,VALID,0,VALID,21.836,VALID,184,VALID,0.114139,
2007-05-20, 01:12:00,VALID,918.711,VALID,0,VALID,99.751,VALID,-0.0339617,VALID,21.8393,VALID,184,VALID,0.111793,
2007-05-20, 01:13:00,VALID,918.682,VALID,0,VALID,99.751,VALID,-0.0339617,VALID,21.823,VALID,184,VALID,0.22674,
2007-05-20, 01:14:00,VALID,918.662,VALID,0,VALID,99.7777,VALID,-0.0679233,VALID,21.8328,VALID,184,VALID,0.444922,
2007-05-20, 01:15:00,VALID,918.643,VALID,0,VALID,99.6442,VALID,-0.0679233,VALID,21.8366,VALID,184,VALID,0.219993,
2007-05-20, 01:16:00,VALID,918.62,VALID,0,VALID,99.5476,VALID,-0.0339617,VALID,21.8006,VALID,184,VALID,0.113086,
2007-05-20, 01:17:00,VALID,918.611,VALID,0,VALID,99.6404,VALID,-0.0509425,VALID,21.7841,VALID,184,VALID,0.0119048,
2007-05-20, 01:18:00,VALID,918.597,VALID,0,VALID,99.6976,VALID,-0.0509425,VALID,21.7768,VALID,184,VALID,0,
2007-05-20, 01:19:00,VALID,918.583,VALID,0,VALID,99.6913,VALID,-0.0169808,VALID,21.7879,VALID,184,VALID,0,
2007-05-20, 01:20:00,VALID,918.574,VALID,0,VALID,99.6658,VALID,-0.0169808,VALID,21.7776,VALID,184,VALID,0,
2007-05-20, 01:21:00,VALID,918.58,VALID,0,VALID,99.6773,VALID,-0.0509425,VALID,21.7716,VALID,184,VALID,0.0584936,
2007-05-20, 01:22:00,VALID,918.604,VALID,0,VALID,99.7052,VALID,-0.0339617,VALID,21.7581,VALID,148,VALID,0.613636,
2007-05-20, 01:23:00,VALID,918.608,VALID,0,VALID,99.7281,VALID,-0.0849042,VALID,21.7586,VALID,41,VALID,0.813988,
2007-05-20, 01:24:00,VALID,918.621,VALID,0,VALID,99.6646,VALID,-0.0509425,VALID,21.7451,VALID,34,VALID,0.996528,
2007-05-20, 01:25:00,VALID,918.646,VALID,0,VALID,99.545,VALID,-0.0509425,VALID,21.7032,VALID,36,VALID,0.832589,
2007-05-20, 01:26:00,VALID,918.659,VALID,0,VALID,99.6048,VALID,-0.0679233,VALID,21.6677,VALID,35,VALID,0.692361,
2007-05-20, 01:27:00,VALID,918.641,VALID,0,VALID,99.7091,VALID,-0.0509425,VALID,21.6318,VALID,35,VALID,0.293241,
2007-05-20, 01:28:00,VALID,918.625,VALID,0,VALID,99.8324,VALID,-0.0679233,VALID,21.6255,VALID,35,VALID,0.0259233,
2007-05-20, 01:29:00,VALID,918.615,VALID,0,VALID,99.8807,VALID,-0.0169808,VALID,21.609,VALID,35,VALID,0.0854048,
2007-05-20, 01:30:00,VALID,918.609,VALID,0,VALID,99.8871,VALID,-0.0509425,VALID,21.596,VALID,50,VALID,0.288662,
2007-05-20, 01:31:00,VALID,918.606,VALID,0,VALID,99.8947,VALID,-0.0169808,VALID,21.5801,VALID,104,VALID,0.451265,
2007-05-20, 01:32:00,VALID,918.619,VALID,0,VALID,99.8973,VALID,-0.0509425,VALID,21.5506,VALID,125,VALID,0.26181,
2007-05-20, 01:33:00,VALID,918.631,VALID,0,VALID,99.969,VALID,-0.0339617,VALID,21.5111,VALID,107,VALID,0.185213,
2007-05-20, 01:34:00,VALID,918.645,VALID,0,VALID,100,VALID,-0.0169808,VALID,21.5046,VALID,79,VALID,0.392912,
2007-05-20, 01:35:00,VALID,918.652,VALID,0,VALID,100,VALID,-0.0339617,VALID,21.4978,VALID,72,VALID,0.423328,
2007-05-20, 01:36:00,VALID,918.651,VALID,0,VALID,100,VALID,-0.0339617,VALID,21.5013,VALID,72,VALID,0.353516,
2007-05-20, 01:37:00,VALID,918.649,VALID,0,VALID,100,VALID,-0.0509425,VALID,21.4978,VALID,72,VALID,0.265104,
2007-05-20, 01:38:00,VALID,918.634,VALID,0,VALID,100,VALID,-0.0169808,VALID,21.5078,VALID,72,VALID,0.0801809,
2007-05-20, 01:39:00,VALID,918.626,VALID,0,VALID,100,VALID,0,VALID,21.4978,VALID,72,VALID,0,
2007-05-20, 01:40:00,VALID,918.612,VALID,0,VALID,100,VALID,-0.0339617,VALID,21.5013,VALID,72,VALID,0.0877976,
2007-05-20, 01:41:00,VALID,918.599,VALID,0,VALID,100,VALID,-0.0339617,VALID,21.4954,VALID,73,VALID,0.253018,
2007-05-20, 01:42:00,VALID,918.589,VALID,0,VALID,100,VALID,-0.0169808,VALID,21.5011,VALID,86,VALID,0.300959,
2007-05-20, 01:43:00,VALID,918.585,VALID,0,VALID,100,VALID,0,VALID,21.5081,VALID,86,VALID,0.304501,
2007-05-20, 01:44:00,VALID,918.589,VALID,0,VALID,100,VALID,-0.118866,VALID,21.503,VALID,86,VALID,0.249826,
2007-05-20, 01:45:00,VALID,918.583,VALID,0,VALID,100,VALID,-0.135847,VALID,21.4932,VALID,86,VALID,0.210211,
2007-05-20, 01:46:00,VALID,918.604,VALID,0,VALID,100,VALID,-0.118866,VALID,21.4832,VALID,86,VALID,0.0548611,
2007-05-20, 01:47:00,VALID,918.598,VALID,0,VALID,100,VALID,-0.152827,VALID,21.4729,VALID,86,VALID,0.0121528,
2007-05-20, 01:48:00,VALID,918.604,VALID,0,VALID,100,VALID,-0.118866,VALID,21.4765,VALID,86,VALID,0.00195313,
2007-05-20, 01:49:00,VALID,918.599,VALID,0,VALID,100,VALID,-0.101885,VALID,21.4732,VALID,86,VALID,0.031808,
2007-05-20, 01:50:00,VALID,918.601,VALID,0,VALID,100,VALID,-0.135847,VALID,21.49,VALID,86,VALID,0.0455412,
2007-05-20, 01:51:00,VALID,918.613,VALID,0,VALID,100,VALID,-0.101885,VALID,21.4992,VALID,86,VALID,0.127477,
2007-05-20, 01:52:00,VALID,918.604,VALID,0,VALID,100,VALID,-0.135847,VALID,21.5222,VALID,86,VALID,0.273438,
2007-05-20, 01:53:00,VALID,918.603,VALID,0,VALID,100,VALID,-0.169808,VALID,21.5419,VALID,86,VALID,0.335379,
2007-05-20, 01:54:00,VALID,918.587,VALID,0,VALID,100,VALID,-0.169808,VALID,21.5652,VALID,86,VALID,0.440044,
2007-05-20, 01:55:00,VALID,918.601,VALID,0,VALID,100,VALID,-0.118866,VALID,21.5617,VALID,84,VALID,0.536458,
2007-05-20, 01:56:00,VALID,918.597,VALID,0,VALID,100,VALID,-0.101885,VALID,21.5417,VALID,82,VALID,0.414244,
2007-05-20, 01:57:00,VALID,918.589,VALID,0,VALID,100,VALID,-0.0849042,VALID,21.5417,VALID,82,VALID,0.392535,
2007-05-20, 01:58:00,VALID,918.595,VALID,0,VALID,100,VALID,-0.135847,VALID,21.5511,VALID,82,VALID,0.31901,
2007-05-20, 01:59:00,VALID,918.583,VALID,0,VALID,100,VALID,-0.0169808,VALID,21.5692,VALID,82,VALID,0.28811,
2007-05-20, 02:00:00,VALID,918.574,VALID,0,VALID,100,VALID,-0.0169808,VALID,21.5787,VALID,81,VALID,0.327172,
2007-05-20, 02:01:00,VALID,918.567,VALID,0,VALID,100,VALID,-0.0169808,VALID,21.5917,VALID,67,VALID,0.374092,
2007-05-20, 02:02:00,VALID,918.534,VALID,0,VALID,100,VALID,0,VALID,21.5722,VALID,66,VALID,0.094769,
2007-05-20, 02:03:00,VALID,918.528,VALID,0,VALID,100,VALID,0.0169808,VALID,21.582,VALID,66,VALID,0,
2007-05-20, 02:04:00,VALID,918.49,VALID,0,VALID,100,VALID,0,VALID,21.6112,VALID,66,VALID,0,
2007-05-20, 02:05:00,VALID,918.466,VALID,0,VALID,100,VALID,-0.0169808,VALID,21.6144,VALID,66,VALID,0.0259811,
2007-05-20, 02:06:00,VALID,918.451,VALID,0,VALID,100,VALID,-0.0169808,VALID,21.6115,VALID,66,VALID,0.346037,
2007-05-20, 02:07:00,VALID,918.447,VALID,0,VALID,100,VALID,-0.0169808,VALID,21.6079,VALID,66,VALID,0.231517,
2007-05-20, 02:08:00,VALID,918.441,VALID,0,VALID,100,VALID,-0.0679233,VALID,21.622,VALID,172,VALID,0.547433,
2007-05-20, 02:09:00,VALID,918.456,VALID,0,VALID,100,VALID,-0.0169808,VALID,21.6082,VALID,193,VALID,0.474019,
2007-05-20, 02:10:00,VALID,918.463,VALID,0,VALID,100,VALID,0,VALID,21.5949,VALID,193,VALID,0.334449,
2007-05-20, 02:11:00,VALID,918.478,VALID,0,VALID,100,VALID,0,VALID,21.5985,VALID,193,VALID,0.118096,
2007-05-20, 02:12:00,VALID,918.479,VALID,0,VALID,100,VALID,-0.0169808,VALID,21.6182,VALID,193,VALID,0.0126488,
2007-05-20, 02:13:00,VALID,918.486,VALID,0,VALID,100,VALID,0,VALID,21.6242,VALID,193,VALID,0.271723,
2007-05-20, 02:14:00,VALID,918.476,VALID,0,VALID,100,VALID,-0.0679233,VALID,21.6253,VALID,193,VALID,0.474382,
2007-05-20, 02:15:00,VALID,918.475,VALID,0,VALID,100,VALID,-0.101885,VALID,21.6228,VALID,193,VALID,0.410334,
2007-05-20, 02:16:00,VALID,918.465,VALID,0,VALID,100,VALID,-0.101885,VALID,21.6096,VALID,193,VALID,0.399805,
2007-05-20, 02:17:00,VALID,918.462,VALID,0,VALID,100,VALID,-0.135847,VALID,21.6234,VALID,193,VALID,0.34593,
2007-05-20, 02:18:00,VALID,918.446,VALID,0,VALID,100,VALID,-0.101885,VALID,21.6204,VALID,193,VALID,0.244731,
2007-05-20, 02:19:00,VALID,918.443,VALID,0,VALID,100,VALID,-0.101885,VALID,21.6196,VALID,193,VALID,0.216388,
2007-05-20, 02:20:00,VALID,918.431,VALID,0,VALID,100,VALID,-0.101885,VALID,21.6199,VALID,193,VALID,0.138148,
2007-05-20, 02:21:00,VALID,918.431,VALID,0,VALID,100,VALID,-0.152827,VALID,21.6264,VALID,193,VALID,0.0636161,
2007-05-20, 02:22:00,VALID,918.436,VALID,0,VALID,100,VALID,-0.101885,VALID,21.6323,VALID,193,VALID,0,
2007-05-20, 02:23:00,VALID,918.445,VALID,0,VALID,100,VALID,-0.135847,VALID,21.6355,VALID,193,VALID,0.0208333,
2007-05-20, 02:24:00,VALID,918.452,VALID,0,VALID,100,VALID,-0.101885,VALID,21.6418,VALID,193,VALID,0.128711,
2007-05-20, 02:25:00,VALID,918.444,VALID,0,VALID,100,VALID,-0.101885,VALID,21.6618,VALID,193,VALID,0.20694,
2007-05-20, 02:26:00,VALID,918.436,VALID,0,VALID,100,VALID,-0.0849042,VALID,21.6615,VALID,193,VALID,0.120393,
2007-05-20, 02:27:00,VALID,918.422,VALID,0,VALID,100,VALID,-0.101885,VALID,21.6686,VALID,193,VALID,0.0408794,
2007-05-20, 02:28:00,VALID,918.417,VALID,0,VALID,100,VALID,-0.118866,VALID,21.6642,VALID,193,VALID,0.0901296,
2007-05-20, 02:29:00,VALID,918.413,VALID,0,VALID,100,VALID,-0.0169808,VALID,21.6631,VALID,193,VALID,0.0633878,
2007-05-20, 02:30:00,VALID,918.398,VALID,0,VALID,100,VALID,-0.0169808,VALID,21.6371,VALID,193,VALID,0.150347,
2007-05-20, 02:31:00,VALID,918.39,VALID,0,VALID,100,VALID,0,VALID,21.6209,VALID,193,VALID,0,
2007-05-20, 02:32:00,VALID,918.372,VALID,0,VALID,100,VALID,0,VALID,21.6244,VALID,193,VALID,0,
2007-05-20, 02:33:00,VALID,918.364,VALID,0,VALID,100,VALID,-0.0339617,VALID,21.6369,VALID,193,VALID,0,
2007-05-20, 02:34:00,VALID,918.348,VALID,0,VALID,100,VALID,0,VALID,21.6537,VALID,193,VALID,0,
2007-05-20, 02:35:00,VALID,918.33,VALID,0,VALID,100,VALID,0,VALID,21.6631,VALID,193,VALID,0,
2007-05-20, 02:36:00,VALID,918.287,VALID,0,VALID,100,VALID,-0.0169808,VALID,21.6856,VALID,193,VALID,0,
2007-05-20, 02:37:00,VALID,918.264,VALID,0,VALID,100,VALID,-0.0509425,VALID,21.7191,VALID,193,VALID,0,
2007-05-20, 02:38:00,VALID,918.269,VALID,0,VALID,100,VALID,-0.0169808,VALID,21.7156,VALID,193,VALID,0,
2007-05-20, 02:39:00,VALID,918.253,VALID,0,VALID,100,VALID,-0.0169808,VALID,21.7248,VALID,193,VALID,0,
2007-05-20, 02:40:00,VALID,918.248,VALID,0,VALID,100,VALID,0,VALID,21.741,VALID,193,VALID,0.307422,
2007-05-20, 02:41:00,VALID,918.237,VALID,0,VALID,100,VALID,-0.0169808,VALID,21.7673,VALID,77,VALID,0.771307,
2007-05-20, 02:42:00,VALID,918.238,VALID,0,VALID,100,VALID,-0.0169808,VALID,21.757,VALID,30,VALID,0.795058,
2007-05-20, 02:43:00,VALID,918.234,VALID,0,VALID,99.9926,VALID,0,VALID,21.7478,VALID,31,VALID,0.708576,
2007-05-20, 02:44:00,VALID,918.22,VALID,0,VALID,99.9341,VALID,-0.0169808,VALID,21.7516,VALID,35,VALID,0.852273,
2007-05-20, 02:45:01,VALID,918.213,VALID,0,VALID,99.8985,VALID,-0.0339617,VALID,21.7454,VALID,42,VALID,0.842297,
2007-05-20, 02:46:00,VALID,918.205,VALID,0,VALID,99.807,VALID,0,VALID,21.7221,VALID,58,VALID,0.91847,
2007-05-20, 02:47:00,VALID,918.201,VALID,0,VALID,99.7879,VALID,-0.0339617,VALID,21.7121,VALID,56,VALID,0.89577,
2007-05-20, 02:48:00,VALID,918.193,VALID,0,VALID,99.7218,VALID,-0.0339617,VALID,21.7094,VALID,42,VALID,0.775868,
2007-05-20, 02:49:00,VALID,918.19,VALID,0,VALID,99.8108,VALID,-0.0169808,VALID,21.6991,VALID,56,VALID,0.907609,
2007-05-20, 02:50:00,VALID,918.186,VALID,0,VALID,99.807,VALID,-0.0169808,VALID,21.6867,VALID,67,VALID,0.919643,
2007-05-20, 02:51:01,VALID,918.177,VALID,0,VALID,99.8108,VALID,-0.0339617,VALID,21.6577,VALID,79,VALID,0.722656,
2007-05-20, 02:52:01,VALID,918.18,VALID,0,VALID,99.9062,VALID,-0.0339617,VALID,21.622,VALID,84,VALID,1.04382,
2007-05-20, 02:53:01,VALID,918.174,VALID,0,VALID,99.9952,VALID,-0.0679233,VALID,21.5728,VALID,89,VALID,0.873365,
2007-05-20, 02:54:00,VALID,918.177,VALID,0,VALID,100,VALID,-0.0169808,VALID,21.5406,VALID,90,VALID,0.983041,
2007-05-20, 02:55:00,VALID,918.154,VALID,0,VALID,100,VALID,-0.0509425,VALID,21.5116,VALID,109,VALID,0.72674,
2007-05-20, 02:56:00,VALID,918.159,VALID,0,VALID,100,VALID,-0.0169808,VALID,21.4886,VALID,127,VALID,0.814024,
2007-05-20, 02:57:00,VALID,918.146,VALID,0,VALID,100,VALID,-0.0339617,VALID,21.4692,VALID,130,VALID,0.799479,
2007-05-20, 02:58:00,VALID,918.134,VALID,0,VALID,100,VALID,-0.0509425,VALID,21.4497,VALID,117,VALID,0.715588,
2007-05-20, 02:59:00,VALID,918.113,VALID,0,VALID,100,VALID,-0.0849042,VALID,21.4437,VALID,119,VALID,0.683866,
2007-05-20, 03:00:00,VALID,918.098,VALID,0,VALID,100,VALID,-0.0849042,VALID,21.431,VALID,115,VALID,0.627362,
2007-05-20, 03:01:01,VALID,918.068,VALID,0,VALID,100,VALID,-0.101885,VALID,21.418,VALID,120,VALID,0.919207,
2007-05-20, 03:02:00,VALID,918.052,VALID,0,VALID,100,VALID,-0.0509425,VALID,21.411,VALID,115,VALID,0.778011,
2007-05-20, 03:03:01,VALID,918.029,VALID,0,VALID,100,VALID,-0.101885,VALID,21.3983,VALID,131,VALID,0.84747,
2007-05-20, 03:04:00,VALID,918.023,VALID,0,VALID,100,VALID,-0.0849042,VALID,21.4048,VALID,129,VALID,0.978423,
2007-05-20, 03:05:01,VALID,918.001,VALID,0,VALID,100,VALID,-0.0679233,VALID,21.3948,VALID,128,VALID,0.828125,
2007-05-20, 03:06:00,VALID,917.984,VALID,0,VALID,100,VALID,-0.0679233,VALID,21.3983,VALID,126,VALID,0.793164,
2007-05-20, 03:07:00,VALID,917.951,VALID,0,VALID,100,VALID,-0.0849042,VALID,21.3885,VALID,135,VALID,1.24346,
2007-05-20, 03:08:00,VALID,917.916,VALID,0,VALID,100,VALID,-0.0339617,VALID,21.3785,VALID,131,VALID,1.24538,
2007-05-20, 03:09:00,VALID,917.876,VALID,0,VALID,100,VALID,-0.0509425,VALID,21.3688,VALID,138,VALID,1.10229,
2007-05-20, 03:10:00,VALID,917.862,VALID,0,VALID,100,VALID,-0.101885,VALID,21.3561,VALID,137,VALID,1.0229,
2007-05-20, 03:11:01,VALID,917.845,VALID,0,VALID,100,VALID,-0.0849042,VALID,21.3496,VALID,129,VALID,0.917411,
2007-05-20, 03:12:00,VALID,917.826,VALID,0,VALID,100,VALID,-0.118866,VALID,21.3504,VALID,121,VALID,0.737805,
2007-05-20, 03:13:00,VALID,917.824,VALID,0,VALID,100,VALID,-0.0679233,VALID,21.3333,VALID,122,VALID,0.8367,
2007-05-20, 03:14:00,VALID,917.832,VALID,0,VALID,100,VALID,-0.101885,VALID,21.3366,VALID,111,VALID,0.541969,
2007-05-20, 03:15:00,VALID,917.803,VALID,0,VALID,100,VALID,-0.101885,VALID,21.3434,VALID,126,VALID,0.789236,
2007-05-20, 03:16:00,VALID,917.789,VALID,0,VALID,100,VALID,-0.101885,VALID,21.3366,VALID,142,VALID,0.695845,
2007-05-20, 03:17:00,VALID,917.772,VALID,0,VALID,100,VALID,-0.101885,VALID,21.3268,VALID,138,VALID,0.840588,
2007-05-20, 03:18:00,VALID,917.752,VALID,0,VALID,100,VALID,-0.101885,VALID,21.3206,VALID,129,VALID,0.882102,
2007-05-20, 03:19:00,VALID,917.732,VALID,0,VALID,100,VALID,-0.101885,VALID,21.3271,VALID,132,VALID,0.872255,
2007-05-20, 03:20:01,VALID,917.718,VALID,0,VALID,100,VALID,-0.0849042,VALID,21.3106,VALID,133,VALID,0.416606,
2007-05-20, 03:21:00,VALID,917.721,VALID,0,VALID,100,VALID,-0.0849042,VALID,21.3041,VALID,133,VALID,1.02958,
2007-05-20, 03:22:00,VALID,917.72,VALID,0,VALID,100,VALID,-0.101885,VALID,21.3011,VALID,148,VALID,0.483648,
2007-05-20, 03:23:00,VALID,917.719,VALID,0,VALID,100,VALID,-0.0679233,VALID,21.2974,VALID,141,VALID,0.173047,
2007-05-20, 03:24:00,VALID,917.733,VALID,0,VALID,100,VALID,-0.0679233,VALID,21.3041,VALID,141,VALID,0.0889863,
2007-05-20, 03:25:00,VALID,917.724,VALID,0,VALID,100,VALID,-0.0849042,VALID,21.3174,VALID,131,VALID,0.627308,
2007-05-20, 03:26:01,VALID,917.73,VALID,0,VALID,100,VALID,-0.0849042,VALID,21.3103,VALID,127,VALID,0.339472,
2007-05-20, 03:27:00,VALID,917.733,VALID,0,VALID,100,VALID,-0.118866,VALID,21.3171,VALID,127,VALID,0.341082,
2007-05-20, 03:28:00,VALID,917.708,VALID,0,VALID,100,VALID,-0.0849042,VALID,21.3266,VALID,127,VALID,0.155887,
2007-05-20, 03:29:00,VALID,917.721,VALID,0,VALID,100,VALID,-0.0169808,VALID,21.3615,VALID,102,VALID,0.400195,
2007-05-20, 03:30:01,VALID,917.718,VALID,0,VALID,100,VALID,0,VALID,21.3769,VALID,85,VALID,0.276563,
2007-05-20, 03:31:00,VALID,917.715,VALID,0,VALID,100,VALID,-0.0169808,VALID,21.3999,VALID,85,VALID,0.215511,
2007-05-20, 03:32:01,VALID,917.71,VALID,0,VALID,100,VALID,0.0339617,VALID,21.4094,VALID,85,VALID,0.188519,
2007-05-20, 03:33:01,VALID,917.703,VALID,0,VALID,100,VALID,0.0509425,VALID,21.3991,VALID,85,VALID,0.0465199,
2007-05-20, 03:34:01,VALID,917.699,VALID,0,VALID,100,VALID,0.0509425,VALID,21.4286,VALID,85,VALID,0.0571057,
2007-05-20, 03:35:01,VALID,917.701,VALID,0,VALID,100,VALID,0,VALID,21.4678,VALID,85,VALID,0.149023,
2007-05-20, 03:36:01,VALID,917.695,VALID,0,VALID,100,VALID,0,VALID,21.4908,VALID,85,VALID,0.165976,
2007-05-20, 03:37:01,VALID,917.684,VALID,0,VALID,100,VALID,0.0509425,VALID,21.4938,VALID,85,VALID,0.0574128,